Location: Paris
(48.6709°N, 2.3750°E)
Time: 00:03:27
(UTC+02:00)

STARS - Pass Details

Date: 06 July 2022
Orbit: 620 x 637 km, 98.2° (Epoch: 16 August)

Event Time Altitude Azimuth Distance (km) Brightness Sun altitude
Rises 01:55:53 0° 2° (N) 2,933 ? -18.6°
Reaches altitude 10° 01:58:33 10° 345° (NNW) 2,017 ? -18.6°
Maximum altitude 02:01:44 20° 299° (WNW) 1,460 ? -18.6°
Drops below altitude 10° 02:04:53 10° 252° (WSW) 1,999 ? -18.6°
Enters shadow 02:05:06 - 250° (WSW) 2,068 ? -18.6°
